Date,TemperatureHighF,TemperatureAvgF,TemperatureLowF,DewpointHighF,DewpointAvgF,DewpointLowF,HumidityHigh,HumidityAvg,HumidityLow,PressureMaxIn,PressureMinIn,WindSpeedMaxMPH,WindSpeedAvgMPH,GustSpeedMaxMPH,PrecipitationSumIn
2013-1-1,51.1,47.8,43.3,44.9,33.2,17.4,86,60,31,29.12,28.88,2,0,2,0.67
2013-1-2,56.3,50.9,48.6,47.9,41.8,33.3,91,73,43,29.09,28.85,4,0,4,0.04
2013-1-3,50.7,45.3,36.1,42.3,37.4,27.1,86,74,52,29.26,29.03,5,1,5,0.00
2013-1-4,54.7,38.8,28.0,35.1,20.2,7.2,85,53,24,29.32,29.18,5,1,5,0.00
2013-1-5,51.1,37.2,23.5,27.9,17.0,11.6,67,46,26,29.35,29.20,3,0,3,0.04
2013-1-6,56.5,45.6,33.4,30.7,26.4,19.5,66,48,33,29.20,29.00,6,1,6,0.00
2013-1-7,56.7,38.8,26.6,32.8,18.8,11.4,77,49,25,29.35,29.15,6,1,6,0.00
2013-1-8,54.3,41.6,27.0,27.6,22.1,14.4,69,48,30,29.41,29.29,5,1,5,0.00
2013-1-9,67.3,56.0,48.0,45.7,34.7,26.5,72,46,32,29.41,29.29,3,0,3,0.00
2013-1-10,72.0,59.3,47.3,54.2,41.4,35.0,88,57,27,29.44,29.26,6,1,6,0.00
2013-1-11,58.5,56.0,53.1,55.5,52.1,49.2,92,87,74,29.26,29.09,5,0,5,0.18
2013-1-12,72.5,59.8,52.9,64.1,53.0,48.4,98,81,45,29.15,29.03,4,0,4,0.00
2013-1-13,73.6,61.5,53.2,64.2,52.4,46.8,98,75,41,29.12,29.00,4,0,4,0.00
2013-1-14,68.9,63.4,58.3,65.7,59.9,53.5,96,89,75,29.09,29.00,3,0,3,0.24
2013-1-15,62.6,57.3,48.0,62.0,54.6,43.7,98,90,83,29.09,28.97,6,1,6,0.14
2013-1-16,53.8,50.0,46.0,51.2,47.7,43.3,96,92,85,29.00,28.91,5,0,5,0.34
2013-1-17,54.3,49.6,37.6,53.8,48.3,36.0,98,95,86,29.18,28.64,8,2,8,2.95
2013-1-18,54.9,39.6,30.0,44.4,25.2,12.0,98,65,23,29.47,29.18,6,0,6,0.00
2013-1-19,55.2,38.6,25.7,36.1,19.6,11.4,82,51,25,29.44,29.12,4,1,4,0.00
2013-1-20,65.1,46.7,32.4,28.3,21.9,15.0,67,40,21,29.15,28.97,5,1,5,0.00
2013-1-21,64.2,43.2,27.7,33.6,16.7,2.0,74,40,18,29.06,28.91,8,2,8,0.00
2013-1-22,48.9,34.9,27.0,8.4,1.1,-4.6,31,24,19,29.20,29.00,5,1,7,0.00
2013-1-23,54.5,40.0,25.2,17.4,8.7,0.2,40,27,22,29.29,29.03,6,1,6,0.00
2013-1-24,61.2,45.9,30.2,25.7,14.0,-6.1,51,29,16,29.38,28.97,12,3,12,0.00
2013-1-25,34.0,29.4,26.6,17.8,2.9,-8.2,52,33,20,29.44,29.03,4,1,4,0.00
2013-1-26,57.2,38.8,27.0,28.2,19.0,13.0,72,48,25,29.26,29.00,4,0,4,0.00
2013-1-27,49.3,39.1,29.5,23.8,19.1,14.4,68,46,28,29.47,29.26,7,1,7,0.00
2013-1-28,54.3,45.3,39.7,34.7,25.0,16.8,77,46,36,29.41,29.20,2,0,2,0.00
2013-1-29,71.4,54.5,36.7,51.9,40.3,30.8,84,62,34,29.20,28.97,4,0,4,0.00
2013-1-30,70.3,62.4,47.7,59.8,50.5,40.5,90,66,47,29.00,28.44,7,2,7,1.59
2013-1-31,52.3,43.1,35.6,40.1,14.5,6.1,74,33,19,29.06,28.58,11,3,11,0.00
2013-2-1,47.5,40.7,21.0,14.4,6.7,-5.8,44,25,19,29.29,28.94,10,3,10,0.00
2013-2-2,51.6,35.1,21.2,29.9,10.1,-2.4,68,38,19,29.32,29.03,5,1,5,0.09
2013-2-3,55.9,42.6,33.6,30.2,19.8,9.2,75,44,20,29.03,28.85,13,2,13,0.00
2013-2-4,51.8,38.0,26.4,18.5,14.5,10.0,58,39,26,29.09,28.94,4,0,4,0.00
2013-2-5,65.1,45.7,28.9,34.8,25.2,15.0,70,47,25,28.97,28.88,5,1,5,0.00
2013-2-6,69.8,48.6,32.5,47.5,24.2,10.0,87,47,17,29.12,28.97,6,1,6,0.00
2013-2-7,49.5,44.6,37.9,39.7,26.4,15.1,87,54,27,29.15,28.91,7,3,7,0.43
2013-2-8,62.4,48.4,35.1,41.7,30.7,17.1,85,54,26,29.09,28.85,8,1,8,0.00
2013-2-9,65.1,43.0,26.8,30.7,17.6,8.0,76,42,17,29.26,29.06,5,1,5,0.00
2013-2-10,62.4,47.0,34.2,42.8,25.1,14.5,83,46,21,29.35,29.09,6,1,6,0.66
2013-2-11,56.3,51.7,47.8,53.7,48.0,42.0,92,87,80,29.09,28.97,5,0,5,0.19
2013-2-12,61.0,50.7,43.2,47.8,34.6,21.8,88,60,25,29.06,28.85,5,1,5,0.14
2013-2-13,52.7,45.6,37.0,44.5,36.7,26.9,87,72,47,28.85,28.64,7,1,7,0.10
2013-2-14,56.7,40.2,28.4,37.7,24.2,18.3,84,57,27,29.03,28.82,5,0,5,0.00
2013-2-15,67.1,45.6,27.9,40.8,22.2,14.8,82,46,18,29.03,28.88,5,1,5,0.00
2013-2-16,53.4,39.7,28.4,27.3,15.7,-0.1,61,39,23,29.03,28.76,11,2,11,0.00
2013-2-17,50.4,35.8,24.8,9.6,1.8,-5.0,31,24,19,29.20,29.00,7,2,7,0.00
2013-2-18,61.2,40.7,22.1,19.3,8.9,-2.9,48,29,17,29.32,29.12,5,1,5,0.00
2013-2-19,55.6,44.2,37.6,36.1,19.8,4.6,67,40,22,29.15,28.88,6,1,6,0.00
2013-2-20,61.0,45.6,26.2,17.6,9.6,2.3,43,24,17,29.09,28.97,4,1,4,0.00
2013-2-21,55.4,52.1,50.2,14.9,10.5,9.7,24,19,18,29.15,29.00,5,0,5,0.00
2013-2-22,50.2,40.9,39.0,35.4,31.9,14.7,83,72,24,29.18,29.03,6,2,6,0.42
2013-2-23,47.1,43.0,39.7,39.8,37.4,34.7,87,80,71,29.09,28.76,4,1,4,0.38
2013-2-24,69.1,55.0,39.9,45.3,31.5,17.7,88,50,18,28.94,28.82,5,1,5,0.00
2013-2-25,49.6,43.2,36.7,29.7,17.2,13.0,75,37,27,29.06,28.91,11,4,11,0.00
2013-2-26,44.6,38.4,34.2,37.9,33.3,28.8,88,82,74,28.94,28.53,13,3,13,0.19
2013-2-27,61.9,48.9,39.2,35.2,22.5,16.1,78,37,24,28.82,28.64,6,2,6,0.00
2013-2-28,57.9,44.4,35.6,22.2,14.8,9.2,41,31,22,28.88,28.70,6,3,6,0.00
2013-3-1,35.6,35.6,35.6,9.3,9.3,9.3,33,33,33,28.91,28.76,6,1,6,0.00
2013-3-2,54.3,41.2,33.8,26.9,13.5,5.6,59,32,26,28.88,28.76,7,2,7,0.00
2013-3-3,53.6,37.7,22.1,14.6,7.4,-2.1,56,30,18,28.97,28.82,6,1,6,0.00
2013-3-4,60.1,39.4,20.3,15.1,8.8,-0.5,53,31,17,29.09,28.97,5,1,5,0.00
2013-3-5,65.1,46.6,34.0,49.0,26.9,11.0,83,48,26,29.03,28.58,9,1,9,0.23
2013-3-6,53.6,40.7,29.5,16.4,11.1,6.6,45,30,20,29.06,28.70,10,4,10,0.00
2013-3-7,62.4,42.9,24.3,24.1,15.8,10.7,64,37,19,29.20,29.06,6,1,6,0.00
2013-3-8,40.5,35.5,35.1,12.2,9.7,9.5,34,34,31,29.26,29.12,5,1,5,0.00
2013-3-9,68.0,47.7,30.7,21.9,14.7,0.6,53,28,17,29.29,29.12,5,1,5,0.00
2013-3-10,74.5,57.3,40.3,28.8,20.0,11.3,51,25,16,29.24,29.06,7,1,7,0.00
2013-3-11,69.1,59.2,47.7,56.2,26.5,-99.9,99,36,18,29.92,28.97,4,-21,4,0.70
2013-3-12,69.3,58.6,50.4,56.2,48.0,27.9,99,74,33,30.03,29.81,5,1,0,0.14
2013-3-13,59.4,47.8,31.5,35.8,24.2,18.6,98,43,23,30.17,30.03,9,4,0,0.00
2013-3-14,55.8,40.3,24.8,23.5,20.5,17.2,90,49,25,30.26,30.05,6,1,0,0.00
2013-3-15,73.4,51.5,28.2,42.0,33.1,18.7,88,54,29,30.09,29.80,5,1,0,0.00
2013-3-16,79.5,63.1,50.2,48.5,43.0,37.8,71,51,30,29.83,29.68,6,1,0,0.00
2013-3-17,77.2,63.5,52.3,51.6,46.8,38.7,74,56,39,29.90,29.78,4,1,0,0.00
2013-3-18,58.8,45.2,42.6,49.8,41.9,39.5,99,89,64,30.00,29.77,8,2,0,0.50
2013-3-19,69.8,54.1,43.3,49.0,33.8,14.9,99,58,17,29.98,29.79,9,2,0,0.00
2013-3-20,62.4,47.1,34.7,32.1,22.6,16.8,80,42,18,30.05,29.75,6,1,0,0.00
2013-3-21,54.9,42.1,31.5,29.3,13.4,2.7,56,33,18,29.90,29.76,8,3,0,0.00
2013-3-22,51.4,39.0,26.6,30.0,22.6,16.9,86,55,31,30.02,29.90,3,0,0,0.00
2013-3-23,52.5,45.1,38.7,49.2,41.8,29.3,99,88,68,29.97,29.80,4,0,0,0.29
2013-3-24,48.0,45.3,42.8,46.1,43.7,42.0,99,94,82,29.83,29.50,7,2,0,1.12
2013-3-25,46.6,40.5,33.6,42.5,26.7,21.2,99,59,40,29.96,29.53,13,4,0,0.01
2013-3-26,49.6,39.1,29.1,25.2,22.9,21.2,79,54,33,30.18,29.93,7,2,0,0.00
2013-3-27,59.4,40.7,23.0,28.4,23.5,19.6,98,57,24,30.27,30.11,5,1,0,0.00
2013-3-28,65.1,44.8,25.0,30.7,22.9,12.4,98,51,14,30.29,30.10,4,1,0,0.00
2013-3-29,61.0,45.4,26.6,39.4,28.6,22.6,96,57,24,30.29,30.13,5,1,0,0.00
2013-3-30,72.5,56.5,45.3,48.6,41.5,38.8,84,60,33,30.14,29.93,5,1,0,0.00
2013-3-31,71.4,59.1,52.0,59.7,55.0,51.1,99,88,54,29.96,29.75,4,1,0,0.60
2013-4-1,76.6,63.1,54.3,56.9,46.9,35.2,99,63,26,29.90,29.75,7,2,0,0.02
2013-4-2,73.4,56.9,39.0,39.4,33.7,18.2,96,47,19,30.07,29.89,4,1,0,0.00
2013-4-3,63.3,55.0,50.0,35.5,26.4,18.5,54,34,24,30.17,30.01,9,2,0,0.00
2013-4-4,52.0,44.0,38.3,39.1,34.9,26.6,99,74,43,30.13,29.89,7,2,0,0.68
2013-4-5,67.3,50.4,35.2,45.6,41.7,34.9,99,76,42,29.97,29.84,6,1,0,0.00
2013-4-6,74.7,54.2,34.3,43.1,37.9,34.0,99,63,23,30.12,29.97,5,1,0,0.00
2013-4-7,75.0,57.5,39.9,50.4,45.2,39.1,98,67,38,30.15,29.98,4,1,0,0.00
2013-4-8,83.3,63.2,49.1,57.7,52.0,47.6,99,72,36,30.07,29.94,6,1,0,0.00
2013-4-9,84.4,65.6,49.1,59.9,55.2,48.8,99,73,40,30.09,29.98,4,0,0,0.00
2013-4-10,86.7,69.0,53.6,62.8,57.9,53.3,99,72,40,30.01,29.81,5,0,0,0.00
2013-4-11,82.8,68.8,56.3,67.5,61.4,54.8,99,79,50,29.85,29.58,4,1,0,0.07
2013-4-12,79.7,67.9,59.9,67.5,56.1,39.6,99,71,35,29.72,29.54,5,2,0,1.51
2013-4-13,82.2,60.8,41.7,47.7,42.2,38.1,99,57,23,29.91,29.74,4,0,0,0.00
2013-4-14,71.8,58.6,45.0,57.2,49.6,43.7,96,75,44,29.99,29.86,3,0,0,0.02
2013-4-15,73.4,63.6,55.4,62.2,58.7,55.0,99,85,60,30.09,29.87,3,0,0,0.13
2013-4-16,82.9,68.0,57.0,63.3,60.0,56.7,99,78,48,30.20,30.06,4,0,0,0.00
2013-4-17,86.0,69.0,60.3,66.5,62.6,59.7,99,83,47,30.14,29.99,5,1,0,0.63
2013-4-18,81.9,68.9,59.0,66.2,62.2,58.7,99,81,50,30.03,29.84,3,0,0,0.00
2013-4-19,71.6,62.3,48.4,66.9,59.9,47.0,96,92,82,29.85,29.68,6,1,0,0.66
2013-4-20,67.6,51.5,38.3,46.6,39.0,30.9,99,69,29,30.16,29.84,4,1,0,0.01
2013-4-21,67.8,53.9,37.8,40.8,38.5,32.9,98,61,34,30.31,30.17,6,1,0,0.00
2013-4-22,66.6,54.7,45.3,41.5,39.2,37.0,86,58,36,30.31,30.11,7,2,0,0.00
2013-4-23,77.0,56.2,39.0,50.7,44.0,36.4,93,67,37,30.18,30.01,4,0,0,0.00
2013-4-24,76.3,61.1,48.4,63.3,55.3,47.9,99,84,54,30.06,29.94,6,0,0,0.08
2013-4-25,76.8,62.3,50.9,60.3,49.0,40.2,99,68,30,30.17,29.97,6,0,0,0.00
2013-4-26,76.3,57.9,39.9,50.2,41.0,34.3,96,60,25,30.32,30.17,4,0,0,0.00
2013-4-27,59.4,56.6,52.2,58.2,54.5,49.7,99,93,76,30.27,30.14,2,0,0,0.23
2013-4-28,54.7,53.7,52.0,54.4,53.4,51.7,99,99,99,30.17,29.96,4,0,0,1.99
2013-4-29,72.3,60.6,53.4,64.4,58.2,53.1,99,92,73,29.98,29.83,4,0,0,0.08
2013-4-30,77.9,64.3,53.8,63.6,58.3,53.5,99,83,57,30.05,29.88,4,1,0,0.00
2013-5-1,68.7,63.0,56.7,59.6,56.0,54.1,97,79,63,30.15,30.04,5,1,0,0.00
2013-5-2,62.8,60.4,58.5,58.9,57.0,55.7,93,89,84,30.16,30.10,5,1,0,0.00
2013-5-3,66.0,60.3,57.9,57.7,55.5,52.7,95,85,69,30.10,29.95,4,2,0,0.00
2013-5-4,59.7,54.9,52.5,54.2,50.1,43.8,99,85,59,29.96,29.81,8,2,0,0.95
2013-5-5,56.8,54.0,52.0,56.2,53.5,51.7,99,99,96,29.83,29.71,5,2,0,1.25
2013-5-6,64.2,55.7,49.6,53.8,50.9,47.3,99,85,59,29.83,29.70,3,0,0,0.00
2013-5-7,73.8,58.1,45.9,56.5,51.1,45.5,99,81,40,29.86,29.77,4,0,0,0.32
2013-5-8,76.5,61.5,49.6,63.2,56.1,49.3,99,85,50,29.93,29.83,4,0,0,0.00
2013-5-9,83.3,66.8,51.8,61.6,57.2,51.5,99,75,40,30.00,29.90,3,0,0,0.00
2013-5-10,82.2,68.1,54.9,65.9,60.9,54.6,99,80,53,29.98,29.83,4,0,0,0.01
2013-5-11,77.9,68.7,61.2,67.9,63.3,60.3,99,84,62,29.87,29.72,2,0,0,0.12
2013-5-12,75.7,63.4,53.1,61.9,50.9,34.9,99,69,33,29.94,29.75,4,0,0,0.00
2013-5-13,72.5,57.1,41.0,45.8,38.2,29.5,96,55,24,30.10,29.93,4,0,0,0.00
2013-5-14,76.8,59.7,40.1,52.6,44.9,38.6,95,62,34,30.17,29.99,5,0,0,0.00
2013-5-15,90.0,72.6,59.2,64.8,57.8,52.1,86,63,40,30.01,29.84,5,0,0,0.00
2013-5-16,81.9,70.6,60.3,66.6,61.2,56.9,92,73,51,29.95,29.86,2,0,0,0.00
2013-5-17,86.2,70.9,56.7,66.1,61.5,55.9,98,75,46,30.00,29.91,2,0,0,0.00
2013-5-18,76.6,68.4,63.1,71.1,65.5,61.3,99,91,71,30.02,29.92,2,0,0,0.38
2013-5-19,74.7,69.1,65.1,69.2,66.1,63.9,99,90,79,30.00,29.89,0,0,0,0.11
2013-5-20,86.0,72.1,63.5,69.2,65.7,62.6,99,82,54,30.01,29.89,2,0,0,0.00
2013-5-21,89.6,75.9,64.9,71.1,66.4,63.0,96,75,47,29.93,29.79,5,0,0,0.00
2013-5-22,86.7,72.4,63.0,70.7,64.6,60.3,93,78,56,29.90,29.76,8,0,0,0.94
2013-5-23,82.6,70.7,63.1,69.0,61.7,53.5,93,76,47,29.86,29.73,4,0,0,0.50
2013-5-24,79.3,68.1,58.3,54.9,47.6,36.3,79,51,23,30.11,29.81,4,1,0,0.00
2013-5-25,78.6,63.7,47.7,52.7,45.0,36.4,84,53,30,30.24,30.06,2,0,0,0.00
2013-5-26,78.3,63.9,51.6,54.4,49.6,43.4,84,63,36,30.21,30.06,4,0,0,0.00
2013-5-27,86.5,69.4,53.6,62.5,56.5,50.0,88,66,40,30.16,30.01,2,0,0,0.00
2013-5-28,86.2,71.8,60.4,64.8,60.9,57.0,89,70,47,30.13,30.02,2,0,0,0.00
2013-5-29,86.0,72.5,60.4,64.8,61.2,56.5,88,69,45,30.15,30.04,3,0,0,0.00
2013-5-30,86.5,73.1,62.4,66.1,62.6,58.7,89,71,47,30.18,30.04,2,0,0,0.00
2013-5-31,86.7,75.3,65.3,68.5,64.9,61.2,88,71,51,30.13,29.99,4,0,0,0.00
2013-6-1,86.5,75.7,66.2,70.4,65.6,61.6,86,72,54,30.04,29.90,2,0,0,0.00
2013-6-2,78.1,70.9,65.7,71.1,66.4,63.4,95,86,74,29.96,29.79,5,0,0,5.17
2013-6-3,84.6,72.1,64.6,73.6,67.7,63.4,96,87,63,29.85,29.73,5,0,0,0.01
2013-6-4,86.2,75.2,65.5,71.2,67.3,63.1,93,78,57,29.95,29.83,3,0,0,0.00
2013-6-5,85.5,72.7,66.7,72.9,67.4,63.7,96,84,66,29.97,29.83,4,0,0,1.23
2013-6-6,75.2,68.7,64.8,71.7,66.7,63.0,95,93,89,29.90,29.68,1,0,0,2.31
2013-6-7,84.0,70.8,66.7,77.2,68.4,64.2,97,92,70,29.75,29.56,5,0,0,0.73
2013-6-8,84.0,73.2,67.3,74.3,69.0,66.1,96,87,67,29.98,29.73,3,0,0,0.00
2013-6-9,83.7,72.7,66.7,76.4,70.2,65.5,98,92,72,30.02,29.93,3,0,0,0.91
2013-6-10,75.0,70.9,67.5,74.4,70.5,67.2,99,99,96,29.95,29.81,3,0,0,0.30
2013-6-11,88.5,77.2,68.5,77.8,71.6,68.2,99,84,55,29.91,29.82,3,0,0,0.22
2013-6-12,93.6,78.4,66.0,79.5,72.8,65.7,99,84,62,29.92,29.82,0,0,0,0.00
2013-6-13,92.5,79.3,70.2,77.1,73.7,69.9,99,85,56,29.84,29.60,6,0,0,1.22
2013-6-14,85.8,73.1,63.3,69.7,63.8,57.3,99,76,42,29.93,29.70,5,0,0,0.01
2013-6-15,86.7,72.3,59.9,66.6,62.4,58.8,98,74,43,30.04,29.94,3,0,0,0.00
2013-6-16,88.0,74.5,62.8,71.5,67.1,62.5,99,80,51,30.07,29.92,2,0,0,0.00
2013-6-17,85.8,75.8,69.3,76.9,72.3,68.9,99,90,71,29.98,29.82,2,0,0,0.33
2013-6-18,86.5,75.1,70.3,76.5,72.4,70.0,99,92,70,29.87,29.68,3,0,0,0.14
2013-6-19,82.6,73.6,67.6,73.2,69.1,66.9,99,87,66,30.01,29.80,3,0,0,0.01
2013-6-20,85.1,73.5,64.6,70.4,67.2,64.3,99,82,57,30.13,30.00,4,1,0,0.00
2013-6-21,85.1,73.3,63.7,68.3,65.4,63.4,99,79,50,30.17,30.05,4,0,0,0.00
2013-6-22,87.4,74.0,62.4,68.3,65.0,62.1,99,76,46,30.13,29.99,2,0,0,0.00
2013-6-23,88.9,76.0,65.7,73.7,69.8,65.4,99,83,57,30.09,29.97,0,0,0,0.00
2013-6-24,90.0,78.6,70.2,75.0,72.2,69.9,99,82,58,30.12,29.99,3,0,0,0.00
2013-6-25,90.5,79.0,70.5,75.1,72.2,69.9,98,81,55,30.06,29.91,4,0,0,0.00
2013-6-26,88.2,78.3,70.7,77.2,73.0,70.1,98,85,63,29.96,29.82,2,0,0,0.00
2013-6-27,91.9,79.6,73.0,78.3,74.7,72.1,99,86,61,29.88,29.64,4,1,0,0.03
2013-6-28,94.8,80.3,71.1,77.9,73.1,69.9,98,81,53,29.71,29.50,5,0,0,0.01
2013-6-29,91.4,78.2,69.3,73.3,70.8,67.1,99,80,47,29.62,29.52,4,0,0,0.00
2013-6-30,88.2,75.2,70.0,74.6,70.7,67.9,98,87,56,29.73,29.60,2,0,0,0.00
2013-7-1,84.7,74.1,68.5,75.3,70.8,68.2,99,90,68,29.86,29.71,3,0,0,0.83
2013-7-2,83.1,74.8,68.5,76.2,72.1,68.2,99,92,74,30.03,29.85,3,0,0,0.01
2013-7-3,83.3,73.2,68.5,75.4,71.6,68.2,99,95,74,30.11,30.00,2,0,0,0.86
2013-7-4,81.1,71.5,67.5,77.9,71.1,67.2,99,99,90,30.11,30.01,4,0,0,2.41
2013-7-5,84.0,73.3,68.4,76.5,71.6,68.1,99,95,69,30.14,30.04,3,0,0,0.43
2013-7-6,86.4,75.0,70.2,77.3,73.0,69.9,99,94,71,30.11,29.98,4,0,0,0.36
2013-7-7,83.8,75.9,71.1,78.4,74.2,70.8,99,95,78,30.07,29.98,2,0,0,1.08
2013-7-8,88.3,76.4,71.1,78.6,73.8,70.8,99,92,68,30.09,29.97,3,0,0,1.57
2013-7-9,87.8,76.6,70.5,79.2,74.2,70.2,99,93,70,30.08,29.92,3,0,0,1.78
2013-7-10,86.4,74.6,68.9,78.8,73.0,68.6,99,95,71,30.01,29.83,2,0,0,1.38
2013-7-11,82.8,76.0,72.9,78.8,74.9,72.6,99,96,84,29.85,29.75,0,0,0,0.00
2013-7-12,88.3,74.0,65.8,77.8,71.6,65.5,99,93,67,29.87,29.74,3,0,0,1.67
2013-7-13,78.6,72.2,66.6,74.0,70.5,66.3,99,94,82,29.98,29.88,3,0,0,0.09
2013-7-14,81.3,75.0,71.8,76.0,73.3,71.5,99,95,77,30.14,29.96,6,0,0,0.44
2013-7-15,84.7,75.5,70.7,78.5,73.2,70.4,99,93,72,30.21,30.11,3,0,0,0.03
2013-7-16,90.9,78.9,69.8,78.4,73.2,69.5,99,84,56,30.21,30.10,3,0,0,0.00
2013-7-17,93.6,78.5,69.3,80.7,73.9,68.5,99,87,60,30.15,29.99,7,0,0,0.59
2013-7-18,89.4,77.7,68.7,78.5,73.4,68.4,99,88,66,30.11,29.96,2,0,0,0.00
2013-7-19,91.6,80.1,71.6,79.5,75.0,71.3,99,86,63,30.03,29.87,3,0,0,0.00
2013-7-20,87.4,77.3,73.6,77.7,74.6,72.3,99,92,70,29.96,29.83,4,0,0,0.35
2013-7-21,90.0,77.9,71.8,78.7,74.2,70.7,99,90,65,29.92,29.79,5,0,0,2.13
2013-7-22,86.2,77.0,71.6,78.1,74.0,71.3,99,91,72,29.91,29.76,4,0,0,0.39
2013-7-23,89.2,77.4,70.0,77.8,73.2,69.7,99,88,66,29.80,29.69,3,0,0,0.00
2013-7-24,90.0,78.6,71.1,78.0,73.7,70.5,99,86,63,29.74,29.66,3,0,0,0.00
2013-7-25,89.1,76.9,68.9,75.2,71.0,66.2,99,83,59,29.92,29.73,3,0,0,0.00
2013-7-26,86.2,76.1,67.8,76.1,71.1,66.5,97,85,65,29.99,29.88,3,0,0,0.00
2013-7-27,81.9,75.7,71.4,77.3,73.6,71.0,99,93,83,29.92,29.78,1,0,0,1.42
2013-7-28,88.2,75.6,68.9,75.9,72.2,68.6,99,90,60,29.90,29.81,4,0,0,0.08
2013-7-29,86.2,75.1,69.1,74.8,70.7,68.7,99,88,60,30.05,29.89,2,0,0,0.00
2013-7-30,88.3,75.6,65.3,75.1,70.4,64.0,98,85,60,30.10,30.01,2,0,0,0.00
2013-7-31,81.3,76.1,72.0,77.0,72.9,70.9,98,90,76,30.06,29.86,0,0,0,0.00
2013-8-1,90.3,77.7,73.2,76.9,73.2,70.3,96,87,64,29.91,29.77,3,0,0,0.00
2013-8-2,89.1,78.2,70.0,75.3,72.0,69.4,99,83,60,29.93,29.82,3,0,0,0.00
2013-8-3,88.2,78.3,71.4,75.8,73.1,70.8,99,85,62,29.93,29.85,2,0,0,0.00
2013-8-4,92.3,79.6,71.6,75.0,71.4,63.4,97,78,50,29.93,29.82,2,0,0,0.00
2013-8-5,84.9,77.0,70.7,77.0,70.8,64.8,93,81,69,29.95,29.86,1,0,0,0.01
2013-8-6,85.5,76.3,71.4,78.8,73.6,69.4,99,92,76,29.96,29.85,3,0,0,3.22
2013-8-7,78.3,74.4,72.7,77.7,74.1,72.4,99,99,97,29.97,29.90,0,0,0,1.68
2013-8-8,83.5,76.1,72.9,79.4,74.5,72.4,99,95,79,29.98,29.89,2,0,0,0.02
2013-8-9,86.4,77.7,73.4,79.9,76.1,73.1,99,95,77,29.99,29.91,0,0,0,0.99
2013-8-10,91.2,78.9,72.9,80.9,75.4,72.3,99,90,67,30.03,29.93,6,0,0,0.00
2013-8-11,91.4,78.3,71.6,78.9,75.2,71.3,99,91,62,30.04,29.93,2,0,0,0.57
2013-8-12,92.3,79.4,72.7,80.6,75.6,72.4,99,89,64,29.98,29.83,3,0,0,0.00
2013-8-13,86.5,78.0,73.6,78.9,75.4,73.2,99,92,70,29.85,29.69,3,0,0,0.16
2013-8-14,81.9,74.8,70.9,74.5,71.0,65.2,99,89,69,29.94,29.74,3,0,0,0.00
2013-8-15,74.7,69.2,65.5,66.8,62.6,59.6,93,80,62,30.02,29.93,5,0,0,0.00
2013-8-16,70.3,65.5,61.7,67.8,63.5,61.4,99,94,83,30.04,29.96,4,0,0,0.58
2013-8-17,69.1,65.3,62.1,66.5,63.9,60.7,99,95,85,30.08,30.01,4,0,0,0.19
2013-8-18,76.6,69.8,65.5,73.3,68.8,65.2,99,97,85,30.12,30.03,3,0,0,0.24
2013-8-19,77.0,71.9,68.9,73.3,70.6,68.6,99,96,84,30.09,29.97,4,0,0,0.43
2013-8-20,80.6,73.6,69.3,74.8,71.9,69.0,99,95,78,30.09,30.00,2,0,0,0.00
2013-8-21,79.5,74.1,70.2,77.7,73.5,69.9,99,98,84,30.13,30.02,1,0,0,0.01
2013-8-22,88.0,75.3,70.0,77.8,73.2,69.7,99,94,68,30.07,29.94,2,0,0,1.37
2013-8-23,88.2,76.5,70.5,77.3,72.9,69.4,99,90,63,29.98,29.84,4,0,0,0.00
2013-8-24,81.7,73.2,66.7,70.9,67.8,64.2,99,84,64,30.19,29.96,5,1,0,0.01
2013-8-25,81.9,70.2,60.1,66.4,63.3,59.8,99,81,51,30.29,30.15,3,0,0,0.00
2013-8-26,83.1,70.7,60.6,68.6,64.6,60.3,99,83,53,30.23,30.03,3,0,0,0.00
2013-8-27,88.5,74.2,63.5,73.5,68.4,62.9,99,84,56,30.07,29.90,1,0,0,0.00
2013-8-28,91.4,77.2,67.5,75.7,71.4,66.9,99,84,55,29.95,29.84,0,0,0,0.00
2013-8-29,91.6,79.3,70.0,78.7,73.9,69.4,99,85,62,29.86,29.77,0,0,0,0.00
2013-8-30,84.7,77.4,74.1,76.7,74.2,72.3,99,90,75,29.95,29.83,2,0,0,1.21
2013-8-31,89.4,78.1,72.9,79.0,74.5,71.4,96,89,69,29.87,29.77,0,0,0,0.00
2013-9-1,90.0,77.6,71.8,78.7,74.1,70.6,97,89,67,29.83,29.71,0,0,0,0.00
2013-9-2,86.7,78.8,72.7,77.9,74.6,71.5,97,87,69,29.81,29.71,0,0,0,0.00
2013-9-3,90.5,77.8,69.1,77.3,73.0,66.5,98,86,61,29.87,29.74,0,0,0,0.23
2013-9-4,87.8,76.2,68.4,74.9,71.2,67.2,97,86,58,29.99,29.86,0,0,0,0.00
2013-9-5,88.7,77.3,68.9,75.3,72.0,67.7,96,85,58,30.02,29.94,0,0,0,0.00
2013-9-6,85.5,74.3,65.5,71.6,66.1,63.1,94,77,50,30.07,29.95,0,0,0,0.00
2013-9-7,86.5,72.8,64.8,70.3,65.8,62.7,94,81,54,30.03,29.90,0,0,0,0.00
2013-9-8,90.0,75.5,66.4,74.2,69.3,64.9,96,83,53,29.91,29.82,0,0,0,0.00
2013-9-9,73.6,71.2,69.3,71.4,69.3,67.2,95,93,92,29.96,29.90,0,0,0,0.00
2013-9-10,79.3,75.5,73.0,72.9,71.7,70.5,92,88,81,30.12,30.06,0,0,0,0.00
2013-9-11,91.8,74.1,67.8,73.3,66.9,-99.9,97,83,50,30.13,29.90,0,-15,0,0.00
2013-9-12,91.2,75.0,67.5,74.8,70.6,67.2,99,88,54,29.91,29.78,3,0,0,0.00
2013-9-13,86.9,74.3,65.3,72.4,66.1,56.9,99,78,46,29.90,29.76,3,0,0,0.00
2013-9-14,80.4,67.4,57.7,63.0,57.2,52.0,95,71,47,30.09,29.91,5,1,0,0.00
2013-9-15,81.5,69.6,60.4,69.5,64.2,58.7,99,84,62,30.17,30.04,3,0,0,0.00
2013-9-16,88.0,73.4,64.4,71.4,66.6,63.9,99,82,46,30.07,29.96,3,0,0,0.00
2013-9-17,75.0,70.1,65.8,63.9,60.6,57.1,84,72,60,30.19,30.05,5,1,0,0.00
2013-9-18,76.5,68.2,63.0,63.8,59.5,56.2,98,75,54,30.15,30.01,5,1,0,0.00
2013-9-19,82.8,69.4,59.2,67.2,63.2,58.9,99,83,54,30.04,29.92,3,0,0,0.00
2013-9-20,86.7,72.1,62.2,69.6,66.1,61.9,99,84,53,29.93,29.76,3,0,0,0.00
2013-9-21,74.8,69.1,64.8,72.4,68.2,64.5,99,97,86,29.79,29.51,4,0,0,1.47
2013-9-22,79.0,68.4,62.8,65.8,63.8,61.8,99,87,58,29.79,29.61,3,0,0,0.00
2013-9-23,78.4,66.7,60.1,63.5,60.8,57.7,99,83,55,29.95,29.80,4,0,0,0.00
2013-9-24,76.6,66.3,57.7,65.7,61.9,57.4,99,87,63,29.98,29.83,4,0,0,0.00
2013-9-25,66.6,63.8,61.7,65.4,63.2,61.4,99,98,94,29.84,29.76,2,0,0,0.77
2013-9-26,76.3,65.6,59.2,65.5,62.0,58.9,99,90,66,29.94,29.79,4,0,0,0.00
2013-9-27,78.4,63.8,53.6,61.9,58.2,53.3,99,84,55,30.08,29.95,4,1,0,0.00
2013-9-28,74.3,63.0,54.9,60.1,57.2,54.6,99,83,55,30.17,30.04,4,0,0,0.00
2013-9-29,73.6,62.2,52.9,61.9,57.5,52.6,99,86,58,30.08,29.93,3,0,0,0.00
2013-9-30,76.5,64.6,56.5,62.6,59.2,56.2,99,85,56,30.01,29.89,4,0,0,0.00
2013-10-1,81.5,64.9,54.0,63.9,59.1,53.7,99,84,48,30.06,29.95,2,0,0,0.00
2013-10-2,82.0,67.2,56.5,67.2,62.4,56.2,99,87,56,30.06,29.96,2,0,0,0.00
2013-10-3,83.5,68.3,57.9,67.5,63.3,57.6,99,86,52,30.04,29.95,2,0,0,0.00
2013-10-4,87.1,69.3,58.1,67.8,63.6,57.8,99,85,47,30.05,29.96,3,0,0,0.00
2013-10-5,86.9,70.0,58.6,69.1,64.7,58.3,99,85,53,30.02,29.90,2,0,0,0.00
2013-10-6,82.4,70.1,60.6,69.6,65.6,60.3,99,87,60,29.93,29.74,2,0,0,0.00
2013-10-7,76.3,69.3,60.3,73.0,66.9,54.5,99,92,78,29.87,29.69,4,0,0,0.85
2013-10-8,71.8,63.4,58.3,57.5,53.5,47.9,87,71,52,30.06,29.85,5,1,0,0.00
2013-10-9,74.5,61.8,52.9,56.1,48.6,43.9,96,64,37,30.11,29.98,5,1,0,0.00
2013-10-10,79.0,60.7,47.7,60.9,54.5,47.4,99,83,46,30.02,29.87,2,0,0,0.00
2013-10-11,81.9,64.7,53.2,62.8,58.5,52.9,99,83,47,29.92,29.80,3,0,0,0.00
2013-10-12,82.6,66.0,53.4,65.1,59.4,53.1,99,82,45,29.96,29.84,3,0,0,0.00
2013-10-13,77.2,69.0,64.0,66.2,64.2,62.9,98,85,63,30.08,29.96,4,0,0,0.00
2013-10-14,71.4,66.4,63.9,64.6,62.9,61.1,99,89,75,30.10,30.01,4,1,0,0.00
2013-10-15,68.4,63.1,57.4,62.1,59.5,57.1,99,88,74,30.06,29.94,3,0,0,0.00
2013-10-16,73.9,62.7,53.1,62.1,58.2,52.8,99,87,54,29.95,29.84,2,0,0,0.00
2013-10-17,67.5,64.4,60.8,67.2,64.0,60.5,99,99,96,29.85,29.75,0,0,0,0.20
2013-10-18,72.3,63.7,56.8,64.3,60.7,56.5,99,91,63,29.90,29.77,2,0,0,0.00
2013-10-19,65.5,60.0,53.8,60.5,58.3,53.5,99,94,79,29.83,29.75,2,0,0,0.00
2013-10-20,68.9,54.5,44.1,53.2,49.2,43.8,99,85,47,29.96,29.82,4,0,0,0.00
2013-10-21,69.3,55.5,44.4,59.4,52.0,44.1,99,89,63,30.04,29.90,3,0,0,0.00
2013-10-22,68.0,60.2,55.8,60.7,57.5,55.5,99,91,68,29.92,29.70,2,0,0,0.00
2013-10-23,65.7,54.4,40.8,55.8,44.3,32.4,99,73,38,29.94,29.65,5,1,0,0.00
2013-10-24,63.3,47.6,34.2,46.9,39.7,33.9,99,77,40,30.08,29.94,3,0,0,0.00
2013-10-25,55.2,44.8,34.9,43.2,35.0,26.0,99,72,34,30.26,30.06,4,1,0,0.00
2013-10-26,59.0,44.4,30.0,40.8,35.3,29.5,99,73,44,30.26,30.01,4,0,0,0.00
2013-10-27,70.3,55.8,40.8,54.9,47.0,38.2,96,74,51,30.04,29.95,3,0,0,0.00
2013-10-28,66.4,59.0,53.6,60.9,56.2,53.0,99,91,72,30.16,30.01,0,0,0,0.00
2013-10-29,73.9,57.3,46.4,59.5,52.7,46.1,99,87,53,30.24,30.13,2,0,0,0.00
2013-10-30,77.0,62.1,53.1,60.9,56.9,52.8,99,85,56,30.20,30.04,3,0,0,0.00
2013-10-31,74.1,63.3,53.6,64.9,59.4,53.3,99,88,68,30.07,29.78,3,0,0,0.00
2013-11-1,68.0,64.4,57.7,65.7,62.6,57.4,99,94,79,29.77,29.56,3,0,0,0.19
2013-11-2,71.2,55.3,46.6,57.1,48.3,40.8,99,80,42,29.89,29.63,4,0,0,0.00
2013-11-3,64.9,48.3,37.2,44.3,40.8,36.7,99,79,39,30.23,29.89,3,0,0,0.00
2013-11-4,60.3,47.5,39.7,41.6,38.6,34.5,99,75,42,30.39,30.23,4,0,0,0.00
2013-11-5,60.6,48.6,37.6,48.6,40.7,33.2,95,76,50,30.42,30.28,5,1,0,0.00
2013-11-6,70.3,58.6,51.3,57.0,53.0,49.1,99,83,58,30.28,30.01,3,0,0,0.00
2013-11-7,73.0,56.7,41.0,62.9,47.8,28.5,99,77,21,30.04,29.84,5,1,0,0.02
2013-11-8,59.2,47.1,36.0,36.6,32.9,26.8,96,63,29,30.21,30.04,3,0,0,0.00
2013-11-9,60.1,44.9,32.5,43.2,35.8,30.4,94,74,36,30.26,30.11,3,0,0,0.00
2013-11-10,71.6,53.0,42.6,44.7,40.6,35.7,92,67,32,30.13,30.01,3,0,0,0.00
2013-11-11,62.1,46.5,34.9,39.2,35.2,28.3,99,71,30,30.24,30.06,6,0,0,0.00
2013-11-12,68.9,45.9,31.8,44.6,33.2,15.2,99,66,33,30.35,29.93,7,2,0,0.00
2013-11-13,51.6,34.6,21.7,24.0,18.0,9.2,91,56,19,30.44,30.33,3,0,0,0.00
2013-11-14,59.0,37.0,22.3,32.7,23.5,17.3,98,66,21,30.38,30.21,3,0,0,0.00
2013-11-15,61.3,46.3,29.7,48.4,37.9,26.0,99,75,38,30.23,30.06,2,0,0,0.10
2013-11-16,66.0,56.4,48.7,57.5,53.5,48.4,99,91,71,30.15,30.05,3,0,0,0.00
2013-11-17,64.9,60.0,55.9,62.5,58.9,55.0,99,96,83,30.08,29.80,2,0,0,0.28
2013-11-18,81.1,61.2,42.3,62.5,51.1,33.0,99,75,27,29.88,29.74,5,0,0,0.01
2013-11-19,61.5,45.3,32.7,39.5,32.2,23.5,99,67,28,30.12,29.87,5,1,0,0.00
2013-11-20,56.3,46.2,37.9,35.0,31.3,28.8,80,57,37,30.29,30.11,9,2,0,0.00
2013-11-21,53.6,49.2,46.6,49.2,41.5,33.7,99,76,57,30.34,30.25,5,2,0,0.00
2013-11-22,63.1,56.0,49.5,58.2,54.4,49.2,99,95,82,30.28,30.03,2,0,0,0.00
2013-11-23,64.2,56.0,37.6,58.4,51.7,33.8,99,86,59,30.08,29.94,3,0,0,0.00
2013-11-24,48.4,36.0,26.8,33.7,16.8,5.7,93,50,18,30.40,30.08,6,2,0,0.00
2013-11-25,46.4,34.7,23.2,19.7,14.4,8.3,79,47,23,30.42,30.18,4,1,0,0.00
2013-11-26,46.0,39.0,32.5,45.7,37.2,19.8,99,94,45,30.18,29.51,5,1,0,2.24
2013-11-27,50.7,40.6,25.7,46.8,35.0,22.1,99,83,47,30.11,29.40,9,2,0,0.49
2013-11-28,54.3,31.4,19.9,30.3,24.3,19.7,99,79,31,30.37,30.11,4,0,0,0.00
2013-11-29,62.1,36.7,23.2,33.2,26.7,23.0,99,74,24,30.45,30.32,4,0,0,0.00
2013-11-30,53.4,37.7,29.5,29.1,26.3,22.6,97,67,32,30.50,30.26,6,1,0,0.00
2013-12-1,59.2,44.0,31.8,43.5,35.8,28.1,99,75,45,30.25,29.90,3,0,0,0.00
2013-12-2,61.5,45.3,32.4,48.8,41.2,32.2,99,88,53,29.90,29.69,3,0,0,0.00
2013-12-3,57.9,52.6,47.5,55.6,51.9,47.2,99,98,87,29.83,29.74,2,0,0,0.39
2013-12-4,64.8,58.3,54.0,63.7,58.0,53.7,99,99,96,29.95,29.80,2,0,0,0.12
2013-12-5,68.0,64.4,60.1,67.7,64.1,59.8,99,99,99,29.99,29.89,3,0,0,0.15
2013-12-6,77.7,68.0,64.6,69.5,66.2,64.3,99,94,69,29.94,29.85,8,1,0,0.07
2013-12-7,64.4,58.4,50.4,63.9,54.9,45.4,99,89,69,30.24,29.88,5,1,0,0.22
2013-12-8,50.2,41.8,37.0,44.6,41.0,36.7,99,97,81,30.25,30.13,6,2,0,0.10
2013-12-9,46.4,41.8,37.2,46.1,41.5,36.9,99,99,99,30.16,29.92,3,0,0,0.78
2013-12-10,61.0,47.7,30.7,55.0,39.3,22.2,99,78,33,30.21,29.79,11,2,0,0.12
2013-12-11,58.6,36.7,25.0,34.7,29.3,24.8,99,80,31,30.34,30.19,3,0,0,0.00
2013-12-12,57.2,35.4,24.6,32.2,26.6,20.7,99,77,26,30.30,30.18,4,0,0,0.00
2013-12-13,61.5,37.5,22.6,35.3,27.9,22.4,99,73,26,30.26,30.11,3,0,0,0.00
2013-12-14,45.9,43.0,39.4,45.6,40.1,32.2,99,90,69,30.13,29.70,5,1,0,1.11
2013-12-15,60.1,45.0,30.9,46.8,38.9,30.6,99,82,41,30.01,29.64,6,1,0,0.02
2013-12-16,65.1,41.1,27.1,36.5,31.4,26.9,99,73,32,30.09,29.98,3,0,0,0.00
2013-12-17,66.4,48.6,35.8,39.1,34.9,28.0,92,62,35,30.06,29.87,9,1,0,0.00
2013-12-18,61.3,42.6,30.2,27.8,20.9,13.9,89,46,16,30.18,29.96,9,1,0,0.00
2013-12-19,65.8,41.1,26.2,35.2,28.6,23.5,99,69,20,30.24,30.09,3,0,0,0.00
2013-12-20,58.5,44.8,33.4,48.4,40.2,31.3,99,85,63,30.14,30.04,2,0,0,0.00
2013-12-21,67.6,56.1,44.8,62.3,54.0,44.5,99,93,79,30.04,29.88,3,0,0,0.00
2013-12-22,70.2,62.7,59.0,67.1,62.2,58.7,99,98,86,29.95,29.84,4,1,0,1.77
2013-12-23,60.4,55.2,44.8,58.7,54.3,43.8,99,97,84,30.05,29.88,2,0,0,0.90
2013-12-24,54.5,41.3,28.2,44.5,30.0,18.5,99,69,31,30.30,30.04,9,1,0,0.00
2013-12-25,46.2,32.4,23.7,26.6,18.7,12.9,81,59,27,30.42,30.25,4,1,0,0.00
2013-12-26,61.9,38.6,27.9,31.4,27.2,22.6,98,67,29,30.27,30.11,3,0,0,0.00
2013-12-27,56.3,36.4,26.1,30.1,27.1,21.4,99,75,29,30.36,30.22,3,0,0,0.00
2013-12-28,51.1,37.0,24.8,41.7,32.5,24.6,99,87,49,30.30,29.96,3,0,0,0.40
2013-12-29,62.8,46.9,40.3,53.4,44.9,40.0,99,93,67,29.93,29.69,7,1,0,0.99
2013-12-30,55.6,44.3,33.6,46.8,40.5,33.3,99,88,62,30.03,29.85,3,0,0,0.00
2013-12-31,55.9,42.9,32.7,40.2,34.7,26.4,99,76,33,30.25,30.02,3,0,0,0.00
2014-1-1,52.5,39.8,29.7,38.1,33.4,29.1,99,81,47,30.26,30.03,3,0,0,0.00
2014-1-2,47.1,42.3,29.5,46.8,39.8,15.2,99,92,54,30.03,29.56,12,1,0,0.24